Temperature
16 16 16 16 16 16 16 16 16 16 16 16 16 16 16 16 16 16 16 16 15 15 15 15 15 15 15 15 15 15 15 15 14 14 14 14 14 14 14 14 14 14 14
16 16 16 16 16 16 16 16 16 16 16 16 16 16 16 16 15 15 15 15 15 15 15 15 15 15 15 15 15 15 15 15 14 14 14 14 14 14 14 14 14 14 14
16 16 16 16 16 16 15 16 16 16 16 16 16 15 16 15 15 15 15 15 15 15 15 15 15 15 15 15 15 15 15 14 14 14 14 14 14 14 14 14 14 13 13
15 16 16 16 15 15 15 15 15 16 16 16 15 15 15 15 15 15 15 15 15 15 15 15 15 15 15 15 15 15 14 14 14 13 13 13 13 14 14 13 13 13 13
15 15 15 15 15 15 15 15 15 15 15 15 15 15 15 15 15 15 15 15 15 15 15 15 15 15 15 15 15 14 14 14 13 13 13 13 13 13 13 13 13 13 13
15 15 15 15 15 15 15 15 15 15 15 15 15 15 15 15 15 15 15 15 15 15 15 15 15 15 15 15 14 14 14 13 13 13 13 13 13 13 13 13 13 13 12
14 15 15 15 15 15 15 15 15 15 15 15 15 15 15 15 15 15 15 15 15 15 14 14 14 14 14 14 14 14 14 13 13 13 13 13 13 13 13 12 12 12 12
14 14 14 14 14 14 14 15 14 14 15 14 14 14 14 15 15 15 15 15 14 14 14 14 14 14 14 14 14 14 13 13 13 13 13 13 12 12 12 12 12 12 12
14 14 14 14 14 14 14 14 14 14 14 14 14 14 14 14 14 14 14 14 14 14 14 14 14 14 14 14 14 14 13 13 13 13 13 13 12 12 12 12 11 11 11
13 13 14 14 14 14 14 14 14 14 14 14 14 14 14 14 14 14 14 14 14 14 14 14 14 14 14 14 14 13 13 13 13 13 13 13 12 12 12 12 11 11 11
13 13 13 13 13 13 13 13 13 13 14 14 13 13 13 13 13 13 13 13 13 13 13 13 13 13 13 13 13 13 13 13 12 12 12 12 12 12 12 11 11 11 11
13 13 13 13 13 13 13 13 13 13 13 13 13 13 13 13 13 13 13 13 13 13 13 13 13 13 13 13 13 13 12 12 12 12 12 12 12 12 11 11 11 11 11
12 12 12 12 12 13 13 13 13 13 13 13 13 13 13 13 13 13 13 13 13 13 13 13 13 13 13 13 13 12 12 12 12 12 12 12 12 12 11 11 11 11 11
11 12 12 12 12 12 12 12 12 12 12 12 12 12 12 12 12 12 12 12 12 12 12 12 12 12 12 12 12 12 12 12 12 12 12 12 12 11 11 11 11 11 10
11 11 11 12 12 12 12 12 12 12 12 12 12 12 12 12 12 12 12 12 12 12 12 12 12 12 12 12 12 12 12 12 12 12 11 11 11 11 11 11 10 10 10
10 11 11 11 11 12 12 12 12 12 12 12 12 11 11 11 11 11 11 11 11 11 11 11 11 11 11 11 11 11 11 11 11 11 11 11 11 11 11 11 10 10 10
10 10 11 11 11 11 11 11 11 11 11 11 11 11 11 11 11 11 11 11 11 11 11 11 11 11 11 11 11 11 11 11 11 11 10 11 11 11 10 10 10 10 10
9 10 10 10 10 10 10 10 11 11 11 11 11 11 11 11 11 11 11 11 11 11 11 11 11 10 11 11 10 10 10 10 10 10 10 10 10 10 10 10 10 9 9
9 9 10 10 10 10 10 10 10 10 10 10 10 10 10 11 11 10 10 10 10 10 10 10 10 10 10 10 10 10 10 10 10 10 10 10 10 10 9 9 9 9 9
8 8 9 9 9 9 10 10 10 10 10 10 10 10 10 10 10 10 10 10 10 10 10 10 10 9 9 9 9 9 9 9 9 9 9 9 9 9 9 9 9 9 9
8 8 8 8 8 9 9 9 9 9 9 9 9 9 9 9 9 10 10 9 9 9 9 9 9 9 9 9 9 9 9 9 9 9 9 8 8 8 8 8 8 8 9
7 7 7 8 8 8 8 8 8 8 8 8 9 9 9 9 9 9 9 9 9 9 9 9 9 8 8 8 8 7 7 8 8 8 8 8 8 8 8 8 8 8 8
6 6 7 7 7 7 7 7 7 8 8 8 8 8 8 8 8 8 8 8 8 8 8 8 8 8 8 7 7 7 7 7 7 7 7 7 7 7 7 7 7 7 7
6 6 6 6 6 7 7 7 7 7 7 7 7 7 8 8 8 8 8 8 8 8 8 8 7 7 7 7 7 6 6 6 6 6 6 7 7 7 7 7 7 7 7
5 5 5 6 6 6 6 6 6 6 6 7 7 7 7 7 7 7 7 7 7 7 7 7 7 7 6 6 6 6 6 6 5 5 5 6 6 6 6 6 6 6 6
5 5 5 5 6 6 6 6 6 6 6 6 6 6 6 6 6 6 6 6 6 6 6 6 6 6 6 6 6 5 5 5 5 5 5 5 5 5 5 5 5 5 5
Wind_Speed
5 6 8 8 9 10 10 10 10 9 10 10 10 10 10 10 11 11 11 12 12 12 12 12 12 12 12 13 13 13 13 13 13 13 13 14 14 14 13 13 13 12 13
7 8 9 9 10 10 10 10 10 9 10 10 10 10 9 10 10 10 11 11 11 12 12 11 11 12 11 12 12 12 12 12 11 11 11 12 13 13 13 12 13 11 12
8 9 8 9 10 10 10 10 10 10 9 10 10 9 9 10 10 10 10 10 11 11 11 11 11 11 11 12 11 11 10 9 9 9 9 10 11 12 12 12 12 12 11
7 9 8 9 10 10 10 9 9 10 9 9 9 9 9 10 9 9 10 10 10 11 11 11 11 11 11 11 10 10 9 7 6 5 7 9 10 11 11 10 11 11 10
6 8 9 9 9 10 9 9 8 8 9 8 9 9 9 9 9 9 9 9 10 10 10 10 11 11 10 10 10 9 7 5 4 5 8 10 10 10 10 9 9 9 9
5 7 9 9 8 9 9 8 8 8 8 8 8 8 9 9 9 9 9 9 9 9 9 9 10 10 10 9 9 8 6 5 5 6 8 10 9 9 9 8 8 8 8
5 7 8 8 8 8 9 8 8 7 7 8 7 8 9 9 9 9 9 9 9 9 9 9 9 9 9 9 8 6 5 3 5 6 8 10 9 9 8 7 7 7 7
4 6 7 7 7 8 8 8 8 7 7 7 7 7 8 9 9 9 9 8 8 8 9 8 8 9 9 8 7 6 4 3 3 5 8 9 9 8 7 6 6 6 6
5 5 5 5 5 6 7 7 7 7 7 6 7 7 7 8 8 8 8 8 8 7 8 8 8 8 8 7 6 5 3 3 3 5 7 8 7 7 6 5 5 5 5
4 4 3 3 4 4 6 7 7 7 7 6 7 7 7 7 7 8 8 7 7 7 8 8 8 7 7 6 5 3 1 3 3 5 6 7 6 5 5 4 4 4 4
4 3 3 2 3 3 5 6 7 6 7 7 6 7 6 5 6 6 7 7 7 7 8 7 7 6 6 5 4 2 0 1 3 4 5 6 5 4 3 3 3 3 3
3 3 2 1 2 3 4 5 5 5 6 5 5 6 5 4 5 5 7 7 6 6 7 7 6 5 5 4 3 2 1 2 2 4 4 5 4 3 3 2 2 2 3
2 3 2 1 1 2 2 3 2 3 4 4 5 4 4 4 4 5 5 5 5 6 5 5 5 3 3 3 2 1 2 1 2 4 4 5 3 2 2 1 1 1 2
2 2 2 2 2 2 2 2 2 2 2 2 4 4 3 2 2 3 3 3 4 3 3 3 2 2 2 2 2 1 1 1 2 4 4 5 3 2 1 0 1 1 2
2 3 2 2 2 1 1 1 2 1 1 3 3 3 3 2 2 2 2 3 3 3 3 1 1 1 1 1 1 1 1 1 2 3 4 4 3 2 2 2 2 2 3
3 3 1 2 2 1 1 1 2 2 1 2 3 3 3 3 2 2 3 3 2 3 2 2 1 1 1 1 0 0 0 1 1 3 4 3 3 3 3 3 3 3 4
2 2 2 1 1 1 0 0 1 1 2 2 3 4 4 3 3 2 2 3 2 2 2 2 1 1 1 0 0 1 0 0 0 1 3 3 4 3 3 4 4 4 5
2 2 2 1 0 0 0 0 0 1 1 1 2 4 4 4 3 2 3 3 2 2 2 2 1 1 0 0 1 1 1 0 1 1 2 2 3 3 3 4 4 5 5
2 2 2 1 0 1 0 1 1 1 1 0 1 3 4 4 4 3 3 3 3 2 2 2 1 1 1 0 1 1 1 1 1 1 1 1 2 2 2 4 5 6 6
1 1 2 1 1 0 0 1 1 1 0 0 1 1 3 3 4 3 3 3 3 3 2 2 2 1 1 0 1 2 2 2 1 1 1 1 2 3 3 3 4 5 7
2 2 2 1 0 0 0 1 1 1 1 1 1 2 2 3 4 3 3 3 3 4 3 3 2 2 1 1 0 1 2 2 2 2 1 1 2 2 3 4 3 3 4
1 2 2 1 1 1 0 1 1 1 1 1 0 1 2 2 3 3 3 3 4 3 4 3 3 2 1 1 1 0 2 2 2 3 1 2 2 1 2 3 3 3 3
2 2 2 2 1 1 1 1 0 1 0 0 1 1 1 2 3 3 3 2 4 4 4 4 4 3 3 2 1 1 1 2 2 2 3 2 2 2 2 1 2 4 4
3 3 3 3 2 1 1 1 1 2 2 2 2 2 1 2 3 4 4 3 3 3 4 4 3 3 3 2 2 2 2 1 1 2 2 2 3 3 3 2 2 3 4
5 4 4 3 3 1 0 0 1 1 2 1 1 2 2 1 2 3 3 3 3 3 4 3 3 3 2 3 2 2 2 2 2 2 3 3 3 3 3 3 2 2 4
5 4 4 3 3 2 1 1 0 1 2 1 1 2 1 1 2 2 3 3 3 4 4 4 4 4 3 3 2 2 2 2 2 2 4 4 4 3 3 3 3 3 4
Wind_Direction
100 109 118 113 111 111 109 106 106 115 116 116 113 110 107 103 100 99 99 97 100 103 102 100 99 97 94 92 90 88 87 85 84 85 83 83 83 79 75 72 71 73 73
114 115 119 114 114 114 111 109 108 108 115 114 113 111 109 107 105 103 100 98 100 104 104 101 100 99 97 95 94 92 90 90 90 89 83 82 81 78 74 70 74 77 73
107 113 115 113 116 114 111 109 111 108 112 113 114 112 110 108 108 106 102 101 99 103 103 101 98 98 99 98 98 97 95 94 94 93 91 89 84 80 76 72 76 75 71
106 116 116 110 117 115 111 109 112 114 110 115 115 116 114 112 109 106 103 103 100 102 103 103 100 100 99 100 100 99 99 95 89 86 89 88 86 84 79 74 75 73 71
102 111 117 115 121 121 117 114 114 120 116 114 118 117 117 115 110 108 105 104 103 105 104 103 103 104 102 101 104 104 103 94 76 81 80 84 85 85 80 75 74 75 74
100 106 120 122 124 126 124 122 120 125 125 118 120 120 120 119 116 110 105 105 104 109 108 105 106 107 106 104 104 105 101 81 71 79 85 87 87 90 86 81 76 74 73
100 106 126 131 129 129 126 128 127 127 129 127 120 127 126 124 119 113 108 105 103 108 111 109 106 108 108 106 105 101 99 75 78 77 82 88 92 94 88 82 77 76 70
82 100 127 140 135 138 134 130 129 129 127 129 125 123 129 125 123 118 112 109 105 109 111 109 108 106 107 106 104 100 82 67 74 86 83 89 96 93 88 83 80 76 68
72 84 109 132 141 146 142 134 132 126 121 125 127 120 126 126 127 125 118 114 109 111 114 110 108 108 106 107 106 102 71 26 31 77 89 90 96 93 86 79 76 72 67
73 76 82 111 120 133 139 137 135 131 128 129 131 125 123 130 131 130 123 119 113 114 115 115 115 111 109 110 115 112 61 11 40 70 83 95 101 97 88 76 70 66 61
66 73 75 83 104 123 142 143 137 140 139 136 136 135 128 131 130 132 127 122 118 121 119 121 122 121 118 122 133 148 182 63 61 76 84 104 110 104 93 77 64 55 46
43 48 65 79 108 121 130 131 136 142 142 141 141 148 143 143 140 136 134 131 126 127 126 125 129 128 119 128 144 173 154 91 79 90 94 118 118 111 102 86 66 43 23
47 26 40 53 113 121 112 123 121 134 143 149 145 147 149 133 121 118 123 127 128 126 121 122 123 130 125 125 128 146 117 101 90 98 112 128 127 126 115 94 62 9 351
15 11 39 52 69 98 107 120 116 118 140 142 144 148 129 112 111 116 125 131 132 126 114 120 137 130 124 135 141 145 116 104 94 100 118 135 140 159 182 211 298 310 320
7 354 25 64 62 68 106 132 133 113 141 137 132 137 112 111 136 136 143 137 133 128 126 135 136 130 135 137 173 155 137 139 119 111 118 136 155 193 220 239 270 289 298
1 351 354 70 41 36 109 141 142 144 146 147 141 142 128 116 135 146 138 143 135 134 142 155 153 143 145 131 159 234 157 143 118 124 136 157 178 202 219 240 260 277 287
356 351 346 139 82 37 76 139 144 152 156 161 153 150 147 138 140 158 142 142 138 131 141 147 113 94 129 125 295 296 60 89 197 164 155 165 184 199 224 247 260 273 283
4 353 348 348 121 108 96 108 159 172 173 167 151 148 152 150 143 153 156 150 144 134 130 139 129 141 170 238 297 296 304 219 211 233 195 176 171 188 221 248 268 275 280
13 360 359 339 294 149 145 133 145 137 129 122 130 140 154 160 155 145 160 152 144 142 141 141 127 153 149 357 309 290 294 279 256 234 205 171 185 194 209 241 262 270 272
30 2 346 342 253 211 175 114 101 87 87 120 137 142 162 167 166 156 161 158 153 151 154 155 159 132 145 185 290 293 275 261 253 256 240 212 206 211 226 246 254 265 270
25 6 344 359 266 184 150 154 144 181 202 168 156 175 176 175 171 163 165 165 163 165 168 160 153 150 166 154 319 298 286 257 244 250 234 237 222 219 227 229 236 256 273
18 348 344 334 271 197 209 187 182 177 228 201 116 180 177 161 162 171 168 181 174 169 169 167 158 171 194 181 185 287 298 295 281 258 253 245 250 232 233 237 235 251 266
19 347 345 329 299 232 219 173 171 141 236 252 201 185 178 191 181 173 175 184 179 176 182 182 178 181 192 223 201 189 209 244 295 265 242 239 247 257 256 241 250 254 254
16 7 2 342 333 274 213 189 202 214 211 217 199 198 209 208 182 181 179 189 189 184 186 194 190 200 186 208 239 242 231 210 239 289 288 265 261 257 255 261 247 253 257
22 18 6 358 360 24 52 222 210 253 247 215 176 187 205 209 183 174 181 181 194 193 196 200 201 207 208 211 219 243 252 258 237 248 278 286 289 270 257 252 241 240 249
24 18 5 359 7 36 47 31 236 235 262 243 195 199 204 209 206 192 186 190 201 198 202 205 202 210 216 222 231 233 234 237 242 235 259 276 279 275 272 257 247 245 246
Height
1490 1491 1493 1494 1496 1497 1499 1500 1501 1503 1504 1505 1507 1508 1509 1511 1512 1513 1514 1515 1516 1517 1517 1518 1519 1520 1520 1521 1521 1522 1522 1523 1523 1523 1524 1524 1525 1525 1525 1526 1526 1526 1526
1489 1490 1493 1494 1496 1498 1499 1500 1502 1503 1504 1506 1507 1508 1510 1511 1512 1514 1515 1516 1517 1517 1518 1519 1520 1520 1521 1522 1522 1523 1523 1524 1524 1525 1525 1525 1526 1526 1526 1526 1527 1527 1527
1489 1490 1492 1494 1496 1498 1499 1500 1502 1503 1505 1506 1508 1509 1510 1511 1513 1514 1515 1516 1517 1518 1519 1520 1520 1521 1522 1522 1523 1524 1524 1525 1525 1526 1526 1526 1527 1527 1527 1527 1528 1528 1528
1490 1490 1492 1494 1496 1497 1499 1500 1502 1503 1505 1506 1508 1509 1510 1511 1513 1514 1515 1516 1517 1518 1519 1520 1521 1521 1522 1523 1524 1524 1525 1526 1527 1527 1527 1527 1528 1528 1528 1528 1528 1528 1528
1490 1491 1492 1493 1495 1497 1499 1500 1502 1503 1505 1506 1508 1509 1510 1512 1513 1514 1515 1516 1517 1519 1520 1521 1521 1522 1523 1523 1524 1525 1526 1527 1527 1528 1528 1528 1528 1528 1528 1528 1528 1528 1529
1490 1491 1492 1493 1495 1496 1498 1500 1501 1503 1505 1506 1508 1509 1510 1512 1513 1514 1515 1516 1517 1519 1520 1521 1522 1522 1523 1524 1524 1525 1526 1527 1527 1528 1528 1528 1528 1529 1528 1529 1529 1529 1529
1490 1490 1492 1493 1494 1496 1497 1499 1501 1502 1504 1506 1507 1509 1510 1511 1513 1514 1515 1516 1517 1518 1519 1520 1522 1522 1523 1524 1525 1526 1526 1527 1527 1528 1528 1528 1528 1529 1529 1529 1529 1529 1529
1489 1490 1491 1493 1494 1495 1497 1498 1500 1501 1503 1505 1507 1508 1510 1511 1512 1514 1515 1516 1517 1518 1519 1520 1521 1522 1523 1524 1525 1526 1526 1527 1528 1528 1528 1528 1528 1528 1528 1528 1529 1529 1528
1488 1489 1490 1492 1493 1494 1496 1497 1499 1500 1502 1504 1506 1507 1509 1510 1511 1513 1514 1515 1516 1517 1518 1519 1521 1522 1523 1523 1524 1525 1526 1527 1527 1527 1527 1527 1528 1528 1528 1528 1528 1528 1528
1487 1487 1489 1490 1491 1493 1494 1496 1498 1499 1501 1503 1505 1506 1507 1509 1510 1511 1513 1514 1515 1516 1518 1519 1520 1521 1522 1523 1524 1525 1525 1526 1526 1527 1527 1527 1527 1527 1527 1527 1527 1527 1527
1486 1486 1487 1489 1490 1491 1493 1495 1496 1498 1500 1501 1503 1505 1506 1507 1509 1510 1511 1513 1514 1515 1517 1518 1519 1520 1521 1522 1523 1524 1524 1525 1526 1526 1526 1526 1526 1526 1526 1526 1526 1526 1526
1484 1485 1486 1487 1488 1489 1491 1493 1495 1497 1498 1500 1501 1503 1505 1506 1507 1508 1510 1511 1513 1514 1515 1517 1518 1519 1520 1521 1521 1522 1523 1524 1524 1525 1525 1525 1525 1525 1525 1525 1525 1525 1525
1483 1484 1485 1486 1487 1488 1489 1491 1493 1495 1496 1498 1500 1502 1503 1505 1506 1507 1508 1510 1511 1513 1514 1515 1516 1517 1518 1519 1520 1521 1521 1522 1523 1523 1524 1524 1524 1524 1523 1523 1523 1523 1523
1482 1482 1483 1484 1485 1486 1487 1489 1491 1493 1495 1496 1498 1500 1501 1503 1504 1505 1506 1508 1509 1511 1512 1514 1515 1516 1517 1518 1518 1519 1520 1520 1521 1521 1522 1522 1522 1522 1522 1522 1522 1521 1521
1480 1479 1480 1481 1482 1484 1485 1487 1489 1491 1493 1494 1496 1498 1499 1501 1502 1503 1505 1506 1507 1508 1510 1512 1513 1514 1515 1516 1517 1517 1518 1518 1519 1519 1519 1520 1520 1520 1520 1520 1520 1519 1519
1477 1478 1479 1479 1480 1482 1483 1485 1487 1489 1491 1492 1494 1495 1497 1499 1500 1501 1503 1504 1505 1507 1508 1510 1511 1512 1513 1514 1514 1515 1516 1516 1517 1517 1517 1517 1518 1518 1518 1517 1517 1517 1517
1476 1476 1476 1477 1478 1479 1481 1482 1484 1486 1488 1490 1491 1493 1495 1496 1498 1499 1501 1502 1503 1505 1506 1508 1509 1510 1511 1512 1512 1513 1513 1514 1514 1515 1515 1515 1515 1515 1515 1515 1515 1514 1514
1474 1474 1474 1475 1476 1477 1478 1479 1481 1483 1485 1487 1489 1490 1492 1494 1495 1497 1498 1499 1501 1502 1504 1505 1506 1508 1508 1509 1510 1510 1511 1511 1511 1512 1512 1512 1512 1512 1512 1512 1512 1512 1511
1472 1472 1472 1473 1474 1475 1476 1477 1479 1480 1482 1484 1486 1487 1489 1491 1492 1494 1495 1497 1498 1499 1501 1502 1503 1505 1505 1506 1507 1507 1508 1508 1508 1509 1509 1509 1509 1509 1509 1509 1509 1508 1508
1470 1470 1470 1470 1471 1472 1473 1474 1475 1477 1479 1481 1483 1484 1486 1488 1489 1491 1492 1494 1495 1496 1497 1499 1500 1502 1502 1503 1503 1504 1504 1505 1505 1506 1506 1506 1506 1506 1506 1505 1505 1505 1505
1468 1468 1468 1468 1468 1468 1469 1470 1472 1474 1476 1478 1480 1481 1483 1484 1486 1487 1489 1491 1492 1493 1494 1495 1496 1498 1499 1500 1500 1500 1501 1502 1502 1502 1502 1502 1503 1503 1502 1502 1502 1501 1501
1466 1466 1465 1465 1465 1466 1467 1468 1470 1471 1473 1475 1476 1478 1479 1481 1483 1484 1485 1487 1488 1489 1491 1492 1493 1494 1495 1497 1498 1497 1497 1498 1498 1498 1498 1499 1499 1499 1499 1498 1498 1497 1497
1463 1463 1463 1463 1463 1464 1465 1465 1467 1469 1470 1471 1473 1474 1476 1478 1479 1480 1482 1484 1485 1486 1487 1488 1489 1491 1492 1493 1495 1496 1495 1494 1494 1494 1494 1495 1495 1495 1495 1494 1494 1493 1493
1462 1462 1462 1461 1461 1461 1462 1463 1464 1465 1466 1468 1470 1471 1473 1475 1476 1477 1478 1480 1481 1482 1483 1485 1486 1487 1488 1489 1491 1491 1492 1492 1492 1490 1491 1491 1491 1491 1491 1490 1490 1489 1489
1461 1461 1460 1460 1459 1459 1460 1461 1462 1464 1464 1465 1467 1468 1469 1471 1472 1473 1475 1476 1477 1479 1480 1481 1482 1484 1485 1486 1486 1487 1488 1488 1488 1488 1486 1486 1487 1487 1487 1486 1486 1485 1485
1460 1459 1458 1457 1457 1457 1458 1459 1460 1461 1462 1462 1463 1465 1466 1467 1469 1470 1471 1472 1474 1475 1476 1477 1479 1480 1481 1482 1483 1483 1484 1484 1484 1484 1483 1482 1482 1482 1482 1482 1481 1481 1480